Location: Home
(42.5358°N, 72.7383°W)
Time: 21:53:39
(UTC-05:00)

Vanguard 2 Rocket - Pass Details

Date: 05 December 2021
Orbit: 554 x 3325 km, 32.9° (Epoch: 21 January)

Event Time Altitude Azimuth Distance (km) Brightness Sun altitude
Rises 22:24:45 0° 269° (W) 4,523 10.7 -64.3°
Enters shadow 22:25:11 - 268° (W) 4,423 10.6 -64.4°
Reaches altitude 10° 22:27:44 10° 259° (W) 3,883 - -64.7°
Maximum altitude 22:36:55 32° 201° (SSW) 3,369 - -65.8°
Drops below altitude 10° 22:50:43 10° 148° (SSE) 5,853 - -67.3°
Sets 22:56:37 0° 140° (SE) 7,132 - -67.9°
